Home > Weather > Toccoa > Past weeks

Flag for USA Past Weather in Toccoa, Georgia, USA — Yesterday and Last 2 Weeks

Now
74 °F

Mostly cloudy.


Feels Like: 73 °F
Forecast: 71 / 92 °F
Wind: 3 mph from North

Location: Clemson-Oconee County Airport

Current Time: Jul 1, 2016 at 7:51:04 AM

Latest Report: Jul 1, 2016 at 6:54 AM


Visibility: 7 mi

Pressure: 29.99 "Hg

Humidity: 88%

Dew Point: 70 °F

Location of ToccoaLocation

Past Weather in Toccoa — Graph

°F

Toccoa Temperature Yesterday

Maximum temperature yesterday: 91 °F (at 3:54 PM)
Minimum temperature yesterday: 71 °F (at 5:54 AM)
Average temperature yesterday: 79 °F

High & Low Weather Summary for the Past Weeks

 TemperatureHumidityPressure
High99 °F (Jun 16, 2:54 PM)90% (Jun 28, 4:54 AM)30.38 "Hg (Jun 28, 4:54 AM)
Low64 °F (Jun 20, 4:54 AM)24% (Jun 17, 2:54 PM)29.72 "Hg (Jun 17, 4:54 PM)
Average83 °F55%30.04 "Hg
* Reported Jun 16 6:54 AM — Jul 1 6:54 AM, Toccoa, Weather by CustomWeather, © 2016

Note: Actual official high and low records may vary slightly from our data, if they occured in-between our weather recording intervals... More about our weather records

Advertising

Toccoa Weather History for the Previous 24 Hours

Scroll right to see more
 ConditionsComfort  
Time TempWeatherWind HumidityBarometerVisibility
6:54 AM
Fri, Jul 1
74 °FMostly cloudy.3 mph88%29.99 "Hg7 mi
5:54 AM74 °FOvercast.No wind88%29.98 "Hg9 mi
4:54 AM73 °FMostly cloudy.3 mph88%29.98 "Hg7 mi
3:54 AM73 °FClear.No wind88%29.97 "Hg10 mi
2:54 AM73 °FClear.No wind88%29.98 "Hg10 mi
1:54 AM75 °FClear.5 mph85%29.99 "Hg10 mi
12:54 AM74 °FPassing clouds.3 mph88%30.00 "Hg10 mi
11:54 PM
Thu, Jun 30
76 °FClear.No wind82%30.00 "Hg10 mi
10:54 PM77 °FClear.5 mph79%30.00 "Hg10 mi
9:54 PM78 °FThunderstorms. Passing clouds.5 mph74%29.98 "Hg10 mi
8:54 PM81 °FCloudy.3 mph74%29.97 "Hg10 mi
7:54 PM82 °FBroken clouds.3 mph72%29.96 "Hg10 mi
6:54 PM82 °FSunny.3 mph70%29.96 "Hg10 mi
6:01 PM80 °FSunny.5 mph74%29.97 "Hg10 mi
5:54 PM79 °FThundershowers. Sunny.5 mph77%29.95 "Hg10 mi
5:04 PM75 °FThunderstorms. Broken clouds.7 mph79%29.98 "Hg2 mi
4:54 PM77 °FStrong thunderstorms. Broken clouds.7 mph74%29.96 "Hg2 mi
3:54 PM91 °FPassing clouds.10 mph49%29.93 "Hg10 mi
2:54 PM89 °FMostly cloudy.8 mph50%29.94 "Hg7 mi
1:54 PM88 °FPartly sunny.8 mph54%29.97 "Hg10 mi
12:54 PM88 °FPartly sunny.7 mph54%29.98 "Hg10 mi
11:54 AM86 °FPartly sunny.6 mph55%30.00 "Hg10 mi
10:54 AM84 °FPassing clouds.5 mph59%29.99 "Hg10 mi
9:54 AM81 °FSunny.6 mph62%29.99 "Hg10 mi
8:54 AM78 °FSunny.6 mph69%30.00 "Hg10 mi
7:54 AM74 °FSunny.3 mph79%29.98 "Hg10 mi
Weather by CustomWeather, © 2016

See weather overviewHow to use our weather pages